This demonstration page uses our WeatherBlox Daily Observations layout. Learn more.

Hourly Observations for February 1, 2019

Temp ( °F °C ) Dew Point ( °F °C ) Humidity (%) Winds ( mph kmh ) Pressure ( in mb ) Visibility ( mi km ) Precip ( " mm )
12:15 am 00:15 Clear 12 -11 5 -15 73 73 Calm 30.48 1032 10 16.09344 0 0
12:35 am 00:35 Clear 10 -12 5 -15 79 79 N 3 6 30.48 1032 10 16.09344 0 0
12:55 am 00:55 Clear 10 -12 5 -15 79 79 Calm 30.48 1032 10 16.09344 0 0
1:15 am 01:15 Clear 10 -12 5 -15 79 79 Calm 30.48 1032 10 16.09344 0 0
1:35 am 01:35 Clear 9 -13 5 -15 85 85 Calm 30.48 1032 10 16.09344 0 0
1:55 am 01:55 Partly Cloudy 9 -13 5 -15 85 85 N 3 6 30.48 1032 10 16.09344 0 0
2:15 am 02:15 Mostly Cloudy 10 -12 5 -15 79 79 N 3 6 30.48 1032 10 16.09344 0 0
2:35 am 02:35 Cloudy 14 -10 5 -15 67 67 NNE 3 6 30.48 1032 10 16.09344 0 0
2:55 am 02:55 Cloudy 16 -9 7 -14 67 67 Calm 30.48 1032 10 16.09344 0 0
3:15 am 03:15 Cloudy 16 -9 3 -16 57 57 Calm 30.48 1032 10 16.09344 0 0
3:35 am 03:35 Cloudy 18 -8 3 -16 53 53 Calm 30.48 1032 10 16.09344 0 0
3:55 am 03:55 Cloudy 18 -8 3 -16 53 53 NW 3 6 30.48 1032 10 16.09344 0 0
4:15 am 04:15 Cloudy 18 -8 3 -16 53 53 Calm 30.48 1032 10 16.09344 0 0
4:35 am 04:35 Cloudy 18 -8 3 -16 53 53 Calm 30.48 1032 10 16.09344 0 0
4:55 am 04:55 Cloudy 18 -8 3 -16 53 53 Calm 30.48 1032 10 16.09344 0 0
5:15 am 05:15 Cloudy 18 -8 3 -16 53 53 Calm 30.48 1032 10 16.09344 0 0
5:35 am 05:35 Cloudy 18 -8 5 -15 58 58 Calm 30.48 1032 10 16.09344 0 0
5:55 am 05:55 Cloudy 18 -8 5 -15 58 58 Calm 30.48 1032 10 16.09344 0 0
6:15 am 06:15 Cloudy 18 -8 7 -14 62 62 Calm 30.48 1032 10 16.09344 0 0
6:35 am 06:35 Cloudy 18 -8 7 -14 62 62 Calm 30.48 1032 10 16.09344 0 0
6:55 am 06:55 Cloudy 18 -8 7 -14 62 62 Calm 30.48 1032 10 16.09344 0 0
7:15 am 07:15 Cloudy 18 -8 10 -12 73 73 Calm 30.48 1032 10 16.09344 0 0
7:35 am 07:35 Cloudy 18 -8 12 -11 79 79 Calm 30.48 1032 1.5 2.414016 0 0
7:55 am 07:55 Cloudy 18 -8 14 -10 86 86 Calm 30.48 1032 1.75 2.816352 0 0
8:15 am 08:15 Cloudy 18 -8 14 -10 86 86 Calm 30.48 1032 1 1.609344 0 0
8:35 am 08:35 Cloudy 18 -8 16 -9 93 93 Calm 30.48 1032 1.25 2.01168 0 0
8:55 am 08:55 Cloudy 18 -8 16 -9 93 93 Calm 30.5 1033 1.25 2.01168 0 0
9:15 am 09:15 Cloudy 18 -8 18 -8 100 100 NE 5 7 30.48 1032 1 1.609344 0 0
9:35 am 09:35 Cloudy 18 -8 18 -8 100 100 NE 5 7 30.48 1032 1.25 2.01168 0 0
9:55 am 09:55 Cloudy 19 -7 18 -8 93 93 NE 5 7 30.48 1032 1.5 2.414016 0 0
10:15 am 10:15 Cloudy 19 -7 18 -8 93 93 NE 3 6 30.48 1032 1.25 2.01168 0 0
10:35 am 10:35 Cloudy 19 -7 18 -8 93 93 NE 5 7 30.48 1032 1.25 2.01168 0 0
10:55 am 10:55 Cloudy 19 -7 19 -7 100 100 NE 3 6 30.48 1032 1 1.609344 0 0
11:15 am 11:15 Cloudy 19 -7 18 -8 93 93 NE 5 7 30.48 1032 1.5 2.414016 0 0
11:35 am 11:35 Cloudy 21 -6 18 -8 86 86 NE 3 6 30.48 1032 1.5 2.414016 0 0
11:55 am 11:55 Cloudy 21 -6 19 -7 93 93 ENE 5 7 30.45 1031 2 3.218688 0 0
12:15 pm 12:15 Cloudy 21 -6 19 -7 93 93 ENE 5 7 30.45 1031 2 3.218688 0 0
12:35 pm 12:35 Cloudy 21 -6 19 -7 93 93 NNE 5 7 30.42 1030 1.75 2.816352 0 0
12:55 pm 12:55 Cloudy 21 -6 19 -7 93 93 NNE 3 6 30.42 1030 2 3.218688 0 0
1:15 pm 13:15 Cloudy 21 -6 19 -7 93 93 NNE 3 6 30.42 1030 5 8.04672 0 0
1:35 pm 13:35 Cloudy 23 -5 19 -7 86 86 NE 5 7 30.39 1029 5 8.04672 0 0
1:55 pm 13:55 Cloudy 23 -5 19 -7 86 86 ENE 5 7 30.36 1028 5 8.04672 0 0
2:15 pm 14:15 Cloudy 23 -5 19 -7 86 86 NE 5 7 30.36 1028 4 6.437376 0 0
2:35 pm 14:35 Cloudy 23 -5 19 -7 86 86 NE 5 7 30.36 1028 4 6.437376 0 0
2:55 pm 14:55 Cloudy 23 -5 19 -7 86 86 NE 5 7 30.36 1028 4 6.437376 0 0
3:15 pm 15:15 Cloudy 23 -5 19 -7 86 86 NE 5 7 30.39 1029 10 16.09344 0 0
3:35 pm 15:35 Cloudy 23 -5 21 -6 93 93 N 5 7 30.36 1028 10 16.09344 0 0
3:55 pm 15:55 Cloudy 21 -6 19 -7 93 93 N 5 7 30.42 1030 10 16.09344 0 0
4:15 pm 16:15 Cloudy 21 -6 19 -7 93 93 N 7 11 30.42 1030 7 11.265408 0 0
4:35 pm 16:35 Cloudy 21 -6 19 -7 93 93 NNE 5 7 30.42 1030 3 4.828032 0 0
4:55 pm 16:55 Cloudy 21 -6 19 -7 93 93 NNE 6 9 30.42 1030 4 6.437376 0 0
5:15 pm 17:15 Cloudy 21 -6 19 -7 93 93 NE 3 6 30.42 1030 10 16.09344 0 0
5:35 pm 17:35 Cloudy 21 -6 19 -7 93 93 NNE 5 7 30.42 1030 5 8.04672 0 0
5:55 pm 17:55 Cloudy 21 -6 19 -7 93 93 NNE 5 7 30.45 1031 10 16.09344 0 0
6:15 pm 18:15 Cloudy 21 -6 19 -7 93 93 NNE 5 7 30.45 1031 10 16.09344 0 0
6:35 pm 18:35 Cloudy 21 -6 19 -7 93 93 NNE 6 9 30.45 1031 10 16.09344 0 0
6:55 pm 18:55 Cloudy 21 -6 19 -7 93 93 NE 3 6 30.48 1032 10 16.09344 0 0
7:15 pm 19:15 Cloudy 21 -6 19 -7 93 93 Calm 30.48 1032 10 16.09344 0 0
7:35 pm 19:35 Cloudy 21 -6 19 -7 93 93 NNE 3 6 30.48 1032 10 16.09344 0 0
7:55 pm 19:55 Cloudy 21 -6 19 -7 93 93 N 5 7 30.48 1032 10 16.09344 0 0
8:15 pm 20:15 Cloudy 21 -6 19 -7 93 93 Calm 30.48 1032 10 16.09344 0 0
8:35 pm 20:35 Cloudy 21 -6 19 -7 93 93 Calm 30.48 1032 10 16.09344 0 0
8:55 pm 20:55 Cloudy 21 -6 19 -7 93 93 Calm 30.48 1032 10 16.09344 0 0
9:15 pm 21:15 Cloudy 21 -6 19 -7 93 93 N 3 6 30.48 1032 10 16.09344 0 0
9:35 pm 21:35 Cloudy 21 -6 19 -7 93 93 N 3 6 30.48 1032 10 16.09344 0 0
9:55 pm 21:55 Cloudy 21 -6 19 -7 93 93 Calm 30.48 1032 10 16.09344 0 0
10:15 pm 22:15 Cloudy 21 -6 19 -7 93 93 Calm 30.48 1032 10 16.09344 0 0
10:35 pm 22:35 Cloudy 21 -6 19 -7 93 93 Calm 30.48 1032 10 16.09344 0 0
10:55 pm 22:55 Cloudy 21 -6 19 -7 93 93 Calm 30.48 1032 10 16.09344 0 0
11:15 pm 23:15 Cloudy 21 -6 19 -7 93 93 Calm 30.48 1032 10 16.09344 0 0
11:35 pm 23:35 Cloudy 21 -6 19 -7 93 93 Calm 30.48 1032 10 16.09344 0 0
11:55 pm 23:55 Mostly Cloudy 21 -6 19 -7 93 93 Calm 30.48 1032 10 16.09344 0 0

Powered by AerisWeather